Regional Weather Roundup
Issued by NWS

Home | Current Version | Previous Version | Graphics & Text | Print | Product List | Glossary On
Versions: 1 2 3 4 5 6 7 8 9 10 11 12 13 14 15 16 17 18 19 20 21 22 23 24 25 26 27 28 29 30 31 32 33 34 35 36 37 38 39 40 41 42 43 44 45 46 47 48 49 50
000
ASUS43 KLSX 262007
RWRMO

WEATHER SUMMARY FOR MISSOURI
NATIONAL WEATHER SERVICE SPRINGFIELD MO
300 PM CDT THU MAR 26 2015

NOTE: "FAIR" INDICATES FEW OR NO CLOUDS BELOW 12,000 FEET WITH NO
       SIGNIFICANT WEATHER AND/OR OBSTRUCTIONS TO VISIBILITY.
       CURRENT SKY AND/OR WEATHER CONDITIONS ARE NOT AVAILABLE FOR
       CHILLICOTHE AND FARMINGTON.

MOZ001>031-035>038-043-044-053-054-262100-
...NORTHERN AND WESTERN MISSOURI...

CITY           SKY/WX    TMP DP  RH WIND       PRES   REMARKS
KANSAS CTY INT PTSUNNY   49  29  46 NW9       30.13F
KANSAS C DTWN  SUNNY     51  26  37 NW8       30.13F
LEE`S SUMMIT   SUNNY     50  28  42 NW12G21   30.13F
ST JOSEPH      SUNNY     48  27  44 VRB7      30.13F
CHILLICOTHE      N/A     49  28  44 NW12G20   30.12F
KIRKSVILLE     MOSUNNY   50  25  37 NW14G21   30.08F

$$
MOZ066>068-077>081-088>096-101>105-262100-
...SOUTHWEST MISSOURI...

CITY           SKY/WX    TMP DP  RH WIND       PRES   REMARKS
SPRINGFIELD    SUNNY     51  29  42 N17       30.08F
JOPLIN         SUNNY     51  29  42 N12G18    30.13F

$$
MOZ032>034-039>042-045>050-055>058-069>072-262100-
...CENTRAL MISSOURI...

CITY           SKY/WX    TMP DP  RH WIND       PRES   REMARKS
COLUMBIA       SUNNY     49  29  46 NW17      30.08F
JEFFERSON CITY SUNNY     49  28  44 NW13      30.09F
ROLLA          SUNNY     47  31  53 MISG      30.05F
SEDALIA        MOSUNNY   49  31  49 NW14G22   30.12F
WHITEMAN AFB   SUNNY     49  29  44 NW10      30.11F
WARRENSBURG    SUNNY     50  28  43 NW9G17    30.13F
OSAGE BEACH    SUNNY     48  27  43 NW6G17    30.09F

$$
MOZ051-052-059>065-262100-
...EAST CENTRAL MISSOURI...

CITY           SKY/WX    TMP DP  RH WIND       PRES   REMARKS
ST LOUIS INTL  MOSUNNY   48  29  47 NW10      30.05F
SPIRIT OF STL  MOSUNNY   48  27  44 N13       30.05F
ST CHARLES     SUNNY     48  28  46 N10G20    30.04F

$$
MOZ072>076-082>087-097>100-106>115-262100-
...SOUTH CENTRAL AND SOUTHEAST MISSOURI...

CITY           SKY/WX    TMP DP  RH WIND       PRES   REMARKS
CAPE GIRARDEAU CLOUDY    44  37  76 N12       30.03F
FARMINGTON     PTSUNNY   45  30  57 N12       30.07S
POPLAR BLUFF   CLOUDY    45  34  65 N12       30.03S
WEST PLAINS    SUNNY     51  30  44 MISG      30.06F

$$


USA.gov is the U.S. government's official web portal to all federal, state and local government web resources and services.